Time,TemperatureF,DewpointF,PressureIn,WindDirection,WindDirectionDegrees,WindSpeedMPH,WindSpeedGustMPH,Humidity,HourlyPrecipIn,Conditions,Clouds,dailyrainin,SolarRadiationWatts/m^2,SoftwareType,DateUTC
2015-01-28 00:13:00,56.4,50.6,29.73,SSE,149,0.0,0.0,81,0.00,,,0.00,0,WeatherCatV1.22B15,2015-01-28 07:13:00,
2015-01-28 00:28:00,56.2,50.5,29.74,SSE,149,0.0,0.0,81,0.00,,,0.00,0,WeatherCatV1.22B15,2015-01-28 07:28:00,
2015-01-28 00:43:00,55.1,50.0,29.73,SSE,149,0.0,0.0,83,0.00,,,0.00,0,WeatherCatV1.22B15,2015-01-28 07:43:00,
2015-01-28 00:58:00,54.4,50.0,29.74,SSE,149,0.0,0.0,85,0.00,,,0.00,0,WeatherCatV1.22B15,2015-01-28 07:58:00,
2015-01-28 01:13:00,53.9,49.8,29.73,SSE,149,0.0,0.0,86,0.00,,,0.00,0,WeatherCatV1.22B15,2015-01-28 08:13:00,
2015-01-28 01:28:00,53.8,49.7,29.74,SSE,149,0.0,0.0,86,0.00,,,0.00,0,WeatherCatV1.22B15,2015-01-28 08:28:00,
2015-01-28 01:43:00,54.1,50.3,29.73,SSE,149,0.0,0.0,87,0.00,,,0.00,0,WeatherCatV1.22B15,2015-01-28 08:43:00,
2015-01-28 01:58:00,54.5,50.4,29.71,SSE,149,0.0,0.0,86,0.00,,,0.00,0,WeatherCatV1.22B15,2015-01-28 08:58:00,
2015-01-28 02:13:00,54.0,49.6,29.71,SSE,149,0.0,0.0,85,0.00,,,0.00,0,WeatherCatV1.22B15,2015-01-28 09:13:00,
2015-01-28 02:28:00,53.2,49.4,29.72,SSE,149,0.0,0.0,87,0.00,,,0.00,0,WeatherCatV1.22B15,2015-01-28 09:28:00,
2015-01-28 02:43:00,52.3,48.8,29.72,SSE,149,0.0,0.0,88,0.00,,,0.00,0,WeatherCatV1.22B15,2015-01-28 09:43:00,
2015-01-28 02:58:00,51.9,49.1,29.72,SSE,149,0.0,0.0,90,0.00,,,0.00,0,WeatherCatV1.22B15,2015-01-28 09:58:00,
2015-01-28 03:13:00,51.9,49.1,29.72,SSE,149,0.0,0.0,90,0.00,,,0.00,0,WeatherCatV1.22B15,2015-01-28 10:13:00,
2015-01-28 03:28:00,51.9,49.1,29.72,SSE,149,0.0,0.0,90,0.00,,,0.00,0,WeatherCatV1.22B15,2015-01-28 10:28:00,
2015-01-28 03:43:00,51.5,48.7,29.73,SSE,149,0.0,0.0,90,0.00,,,0.00,0,WeatherCatV1.22B15,2015-01-28 10:43:00,
2015-01-28 03:58:00,51.5,49.0,29.73,SSE,149,0.0,0.0,91,0.00,,,0.00,0,WeatherCatV1.22B15,2015-01-28 10:58:00,
2015-01-28 04:13:00,51.4,48.6,29.72,SSE,149,0.0,0.0,90,0.00,,,0.00,0,WeatherCatV1.22B15,2015-01-28 11:13:00,
2015-01-28 04:28:00,51.0,48.2,29.72,SSE,149,0.0,0.0,90,0.00,,,0.00,0,WeatherCatV1.22B15,2015-01-28 11:28:00,
2015-01-28 04:43:00,50.4,47.9,29.72,South,176,0.0,0.0,91,0.00,,,0.00,0,WeatherCatV1.22B15,2015-01-28 11:43:00,
2015-01-28 04:58:00,50.2,47.7,29.73,South,176,0.0,0.0,91,0.00,,,0.00,0,WeatherCatV1.22B15,2015-01-28 11:58:00,
2015-01-28 05:13:00,49.7,47.2,29.73,South,176,0.0,0.0,91,0.00,,,0.00,0,WeatherCatV1.22B15,2015-01-28 12:13:00,
2015-01-28 05:28:00,49.4,46.9,29.73,South,174,0.0,4.0,91,0.00,,,0.00,0,WeatherCatV1.22B15,2015-01-28 12:28:00,
2015-01-28 05:43:00,49.1,46.9,29.73,South,174,2.0,2.0,92,0.00,,,0.00,0,WeatherCatV1.22B15,2015-01-28 12:43:00,
2015-01-28 05:58:00,49.0,46.8,29.73,South,173,0.0,0.0,92,0.00,,,0.00,0,WeatherCatV1.22B15,2015-01-28 12:58:00,
2015-01-28 06:13:00,49.1,46.9,29.73,South,173,0.0,2.0,92,0.00,,,0.00,0,WeatherCatV1.22B15,2015-01-28 13:13:00,
2015-01-28 06:28:00,49.2,47.0,29.72,South,173,0.0,0.0,92,0.00,,,0.00,0,WeatherCatV1.22B15,2015-01-28 13:28:00,
2015-01-28 06:43:00,48.5,46.3,29.73,South,173,0.0,0.0,92,0.00,,,0.00,0,WeatherCatV1.22B15,2015-01-28 13:43:00,
2015-01-28 06:58:00,48.1,46.2,29.74,South,173,0.0,0.0,93,0.00,,,0.00,0,WeatherCatV1.22B15,2015-01-28 13:58:00,
2015-01-28 07:13:00,48.1,46.2,29.75,South,173,0.0,0.0,93,0.00,,,0.00,0,WeatherCatV1.22B15,2015-01-28 14:13:00,
2015-01-28 07:28:00,47.9,45.7,29.75,South,173,0.0,0.0,92,0.00,,,0.00,11,WeatherCatV1.22B15,2015-01-28 14:28:00,
2015-01-28 07:43:00,48.1,46.2,29.75,South,173,0.0,0.0,93,0.00,,,0.00,109,WeatherCatV1.22B15,2015-01-28 14:43:00,